Terminal Aerodrome Forecast
Issued by NWS

Home | Current Version | Previous Version | Text Only | Print | Product List | Glossary On
Versions: 1 2 3 4 5 6 7 8 9 10 11 12 13 14 15 16
000
FTUS43 KILX 250000 AAB
TAFDEC
TAF AMD
KDEC 250046Z 2501/2524 15015G23KT P6SM VCSH SCT035 BKN070
      TEMPO 2501/2502 27025G35KT 4SM SHRA BR BKN035
     FM250200 17010KT 4SM -RA OVC045
     FM250400 24010KT 6SM -RA SCT007 OVC035
     FM250900 30014G20KT P6SM SCT015
     FM251100 32012KT P6SM SKC=

USA.gov is the U.S. government's official web portal to all federal, state and local government web resources and services.